Luverne, MN

2:00 PM CST on December 05, 2019 (GMT -0600)
Luverne

Weather History for KLYV - November, 2019

Change the Weather History Date:

Wednesday, November 13, 2019

  Actual Average (WUND) Record (WUND)
Temperature  
Mean Temperature 29 °F -  
Max Temperature 35 °F - - (-1)
Min Temperature 21 °F - - (-1)
Degree Days  
Heating Degree Days 36    
Moisture  
Dew Point 22 °F    
Average Humidity 75    
Maximum Humidity 93    
Minimum Humidity 64    
Precipitation  
Precipitation 0.00 in - - ()
Sea Level Pressure  
Sea Level Pressure 29.94 in    
Wind  
Wind Speed 8 mph (WNW)    
Max Wind Speed 14 mph    
Max Gust Speed 18 mph    
Visibility 10 miles    
Events Rain , Snow    
Averages and records for this station are not official NWS values.
T = Trace of Precipitation, MM = Missing Value Source: NWS Daily Summary

Daily Weather History Graph

Daily Weather History Graph

Search for Another Location

Airport or City:

Astronomy

Nov. 13, 2019 Rise Set
Actual Time 7:16 AM CST 5:01 PM CST
Civil Twilight 6:45 AM CST 5:32 PM CST
Nautical Twilight 6:10 AM CST 6:07 PM CST
Astronomical Twilight 5:36 AM CST 6:40 PM CST
Moon 6:04 PM CST (11/13) 8:10 AM CST (11/13)
Length of Visible Light 10h 47m
Length of Day
9h 45m
Full, 99% of the Moon is Illuminated
Nov 13
Full
Nov 19
Last Quarter
Nov 26
New
Dec 4
First Quarter
Dec 11
Full

Hourly Weather History & Observations

Time (CST) Temp. Windchill Dew Point Humidity Pressure Visibility Wind Dir Wind Speed Gust Speed Precip Events Conditions
12:18 AM 24.8 °F 14.0 °F 14.0 °F 64% 29.86 in 10.0 mi SSW 11.5 mph 17.3 mph N/A   Overcast
12:36 AM 24.8 °F 13.4 °F 14.0 °F 64% 29.85 in 10.0 mi SSW 12.7 mph 16.1 mph N/A   Mostly Cloudy
12:55 AM 24.8 °F 15.3 °F 14.0 °F 64% 29.84 in 10.0 mi South 9.2 mph - N/A   Scattered Clouds
1:16 AM 24.8 °F 14.0 °F 14.0 °F 64% 29.84 in 10.0 mi South 11.5 mph - N/A   Scattered Clouds
1:35 AM 26.6 °F 17.5 °F 15.8 °F 64% 29.83 in 10.0 mi South 9.2 mph - N/A   Mostly Cloudy
1:40 AM 26.6 °F 16.8 °F 15.8 °F 64% 29.83 in 10.0 mi South 10.4 mph - N/A   Overcast
1:58 AM 26.6 °F 16.8 °F 15.8 °F 64% 29.83 in 10.0 mi South 10.4 mph - N/A   Overcast
2:15 AM 26.6 °F 16.8 °F 15.8 °F 64% 29.82 in 10.0 mi SSW 10.4 mph - N/A   Overcast
2:36 AM 26.6 °F 19.1 °F 15.8 °F 64% 29.81 in 10.0 mi SSW 6.9 mph - N/A   Overcast
2:56 AM 26.6 °F 19.1 °F 17.6 °F 69% 29.81 in 10.0 mi South 6.9 mph - N/A   Overcast
3:19 AM 26.6 °F 18.2 °F 17.6 °F 69% 29.81 in 10.0 mi South 8.1 mph - N/A   Overcast
3:36 AM 26.6 °F 19.1 °F 17.6 °F 69% 29.81 in 10.0 mi South 6.9 mph - N/A   Overcast
4:16 AM 28.4 °F 21.2 °F 17.6 °F 64% 29.82 in 10.0 mi SSW 6.9 mph - N/A   Overcast
4:35 AM 28.4 °F 20.4 °F 17.6 °F 64% 29.83 in 10.0 mi SSW 8.1 mph - N/A   Overcast
4:39 AM 28.4 °F 21.2 °F 17.6 °F 64% 29.83 in 10.0 mi SSW 6.9 mph - N/A   Overcast
4:58 AM 28.4 °F 21.2 °F 17.6 °F 64% 29.82 in 10.0 mi SSW 6.9 mph - N/A   Overcast
5:16 AM 28.4 °F 21.2 °F 17.6 °F 64% 29.82 in 10.0 mi South 6.9 mph - N/A   Overcast
5:36 AM 28.4 °F 22.2 °F 17.6 °F 64% 29.82 in 10.0 mi South 5.8 mph - N/A   Overcast
5:55 AM 28.4 °F 22.2 °F 17.6 °F 64% 29.82 in 10.0 mi South 5.8 mph - N/A   Overcast
6:36 AM 28.4 °F 23.3 °F 19.4 °F 69% 29.84 in 10.0 mi SSW 4.6 mph - N/A   Overcast
6:56 AM 28.4 °F 23.3 °F 19.4 °F 69% 29.84 in 10.0 mi SSW 4.6 mph - N/A   Overcast
7:16 AM 28.4 °F 23.3 °F 19.4 °F 69% 29.83 in 10.0 mi South 4.6 mph - N/A   Overcast
7:35 AM 28.4 °F 23.3 °F 19.4 °F 69% 29.83 in 10.0 mi SSW 4.6 mph - N/A   Overcast
7:40 AM 28.4 °F 22.2 °F 19.4 °F 69% 29.84 in 10.0 mi SSW 5.8 mph - N/A   Overcast
7:58 AM 28.4 °F 22.2 °F 19.4 °F 69% 29.84 in 10.0 mi SSW 5.8 mph - N/A   Overcast
8:15 AM 30.2 °F - 21.2 °F 69% 29.86 in 10.0 mi Calm Calm - N/A   Overcast
8:36 AM 30.2 °F - 19.4 °F 64% 29.87 in 10.0 mi Calm Calm - N/A   Overcast
8:56 AM 30.2 °F - 21.2 °F 69% 29.88 in 10.0 mi Calm Calm - N/A   Overcast
9:18 AM 30.2 °F - 21.2 °F 69% 29.88 in 10.0 mi Calm Calm - N/A   Scattered Clouds
9:37 AM 32.0 °F 28.7 °F 21.2 °F 64% 29.88 in 10.0 mi NW 3.5 mph - N/A   Scattered Clouds
9:56 AM 32.0 °F 27.5 °F 21.2 °F 64% 29.88 in 10.0 mi NNW 4.6 mph - N/A   Mostly Cloudy
10:16 AM 32.0 °F 24.8 °F 23.0 °F 69% 29.88 in 10.0 mi North 8.1 mph - N/A   Overcast
10:35 AM 32.0 °F 25.6 °F 23.0 °F 69% 29.89 in 10.0 mi NNW 6.9 mph - N/A   Overcast
10:39 AM 33.8 °F 27.7 °F 23.0 °F 65% 29.90 in 10.0 mi North 6.9 mph - N/A   Overcast
10:58 AM 33.8 °F 27.7 °F 23.0 °F 65% 29.90 in 10.0 mi NNW 6.9 mph - N/A   Overcast
11:15 AM 33.8 °F 27.7 °F 23.0 °F 65% 29.91 in 10.0 mi North 6.9 mph - N/A   Overcast
11:36 AM 35.6 °F 29.2 °F 24.8 °F 65% 29.92 in 10.0 mi NNW 8.1 mph - N/A   Overcast
11:56 AM 35.6 °F 27.5 °F 26.6 °F 70% 29.91 in 7.0 mi North 11.5 mph - N/A   Overcast
12:17 PM 35.6 °F 27.5 °F 28.4 °F 75% 29.92 in 7.0 mi NNW 11.5 mph - N/A Snow Light Snow
12:36 PM 33.8 °F 27.0 °F 30.2 °F 87% 29.92 in 10.0 mi North 8.1 mph - N/A   Overcast
12:56 PM 33.8 °F 27.0 °F 30.2 °F 87% 29.91 in 10.0 mi NNW 8.1 mph - N/A Rain Rain
1:16 PM 33.8 °F 27.0 °F 30.2 °F 87% 29.92 in 10.0 mi NNW 8.1 mph - N/A   Light Drizzle
1:38 PM 33.8 °F 28.6 °F 30.2 °F 87% 29.92 in 10.0 mi NNW 5.8 mph - N/A   Overcast
1:56 PM 35.6 °F 28.6 °F 30.2 °F 81% 29.92 in 10.0 mi NW 9.2 mph - N/A   Light Drizzle
2:16 PM 33.8 °F 24.8 °F 30.2 °F 87% 29.93 in 10.0 mi NNW 12.7 mph 18.4 mph N/A   Drizzle
2:36 PM 33.8 °F 26.4 °F 30.2 °F 87% 29.94 in 10.0 mi NNW 9.2 mph - N/A   Overcast
2:55 PM 33.8 °F 24.3 °F 30.2 °F 87% 29.95 in 10.0 mi NNW 13.8 mph - N/A   Overcast
2:59 PM 33.8 °F 25.3 °F 30.2 °F 87% 29.95 in 10.0 mi NNW 11.5 mph - N/A   Overcast
3:16 PM 33.8 °F 24.8 °F 30.2 °F 87% 29.96 in 7.0 mi NNW 12.7 mph - N/A Snow Light Snow
3:36 PM 33.8 °F 26.4 °F 30.2 °F 87% 29.97 in 5.0 mi NNW 9.2 mph - N/A Snow Light Snow
3:56 PM 33.8 °F 26.4 °F 28.4 °F 81% 29.98 in 10.0 mi NNW 9.2 mph - N/A   Overcast
4:15 PM 33.8 °F 27.0 °F 28.4 °F 81% 29.98 in 10.0 mi NNW 8.1 mph - N/A   Overcast
4:19 PM 33.8 °F 27.0 °F 28.4 °F 81% 29.98 in 10.0 mi NNW 8.1 mph - N/A   Overcast
4:37 PM 32.0 °F 23.6 °F 26.6 °F 80% 29.99 in 10.0 mi NNW 10.4 mph - N/A   Overcast
4:56 PM 32.0 °F 24.8 °F 26.6 °F 80% 29.99 in 10.0 mi NNW 8.1 mph - N/A   Mostly Cloudy
5:36 PM 32.0 °F 28.7 °F 26.6 °F 80% 30.01 in 10.0 mi NNW 3.5 mph - N/A   Clear
5:58 PM 30.2 °F 26.7 °F 26.6 °F 86% 30.02 in 10.0 mi NW 3.5 mph - N/A   Clear
6:17 PM 30.2 °F 26.7 °F 24.8 °F 80% 30.02 in 10.0 mi NW 3.5 mph - N/A   Clear
6:36 PM 30.2 °F 26.7 °F 24.8 °F 80% 30.04 in 10.0 mi NW 3.5 mph - N/A   Clear
6:55 PM 28.4 °F 23.3 °F 23.0 °F 80% 30.04 in 10.0 mi WNW 4.6 mph - N/A   Clear
7:15 PM 28.4 °F - 24.8 °F 86% 30.05 in 10.0 mi Calm Calm - N/A   Clear
7:20 PM 28.4 °F - 24.8 °F 86% 30.05 in 10.0 mi Calm Calm - N/A   Clear
7:37 PM 28.4 °F 23.3 °F 24.8 °F 86% 30.06 in 10.0 mi WNW 4.6 mph - N/A   Clear
7:56 PM 28.4 °F 23.3 °F 24.8 °F 86% 30.07 in 10.0 mi WNW 4.6 mph - N/A   Clear
8:16 PM 26.6 °F 22.6 °F 24.8 °F 93% 30.08 in 10.0 mi NW 3.5 mph - N/A   Clear
8:36 PM 26.6 °F 20.0 °F 23.0 °F 86% 30.08 in 10.0 mi NW 5.8 mph - N/A   Clear
8:59 PM 26.6 °F 21.2 °F 21.2 °F 80% 30.09 in 10.0 mi NNW 4.6 mph - N/A   Clear
9:16 PM 26.6 °F 20.0 °F 21.2 °F 80% 30.09 in 10.0 mi NNW 5.8 mph - N/A   Clear
9:36 PM 26.6 °F 21.2 °F 19.4 °F 74% 30.10 in 10.0 mi NNW 4.6 mph - N/A   Clear
9:56 PM 24.8 °F 20.5 °F 19.4 °F 80% 30.10 in 10.0 mi NNW 3.5 mph - N/A   Clear
10:15 PM 24.8 °F 20.5 °F 19.4 °F 80% 30.11 in 10.0 mi NNW 3.5 mph - N/A   Clear
10:20 PM 23.0 °F 18.4 °F 19.4 °F 86% 30.11 in 10.0 mi NNW 3.5 mph - N/A   Clear
10:37 PM 23.0 °F 17.0 °F 17.6 °F 80% 30.11 in 10.0 mi NNW 4.6 mph - N/A   Clear
10:55 PM 23.0 °F 17.0 °F 17.6 °F 80% 30.12 in 10.0 mi NNW 4.6 mph - N/A   Clear
11:16 PM 23.0 °F 17.0 °F 17.6 °F 80% 30.13 in 10.0 mi NNW 4.6 mph - N/A   Clear
11:35 PM 23.0 °F 15.8 °F 17.6 °F 80% 30.13 in 10.0 mi NNW 5.8 mph - N/A   Clear
11:58 PM 21.2 °F 13.6 °F 17.6 °F 86% 30.14 in 10.0 mi NNW 5.8 mph - N/A   Clear